Regional Weather Roundup
Issued by NWS Goodland, KS

Home | Current Version | Previous Version | Graphics & Text | Print | Product List | Glossary On
Versions: 1 2 3 4 5 6 7 8 9 10 11 12 13 14 15 16 17 18 19 20 21 22 23 24 25 26 27 28 29 30 31 32 33 34 35 36 37 38 39 40 41 42 43 44 45 46 47 48 49 50
000
ASUS43 KGLD 272008
RWRGLD

GOODLAND FORECAST AREA HOURLY WEATHER ROUNDUP
NATIONAL WEATHER SERVICE GOODLAND KS
200 PM MDT WED MAY 27 2015

...OFFICIAL OBSERVATIONS...

CITY           SKY/WX    TMP DP  RH WIND       PRES   REMARKS
GOODLAND KS    MOSUNNY   78  57  48 S20G30    30.02F
HILL CITY KS   CLOUDY    75  61  61 SE15G23   30.06F
IMPERIAL NEB   MOSUNNY   70  56  61 S16G26    30.03F
MCCOOK NEB     PTSUNNY   72  60  66 E15       30.05F
AKRON CO       MOSUNNY   75  48  38 MISG      30.02F
BURLINGTON CO  MOSUNNY   79  52  38 SW15G28   30.04F
LIMON CO       MOSUNNY   69  46  43 S13       30.06F
$$

...UNOFFICIAL OBSERVATIONS...

CITY           SKY/WX    TMP DP  RH WIND       PRES   REMARKS
COLBY KS       MOSUNNY   75  63  64 SE20      30.07S
GOVE KS          N/A     75  32  20 MISG        N/A
LENORA KS        N/A     72  32  23 MISG        N/A
NORTON KS      PTSUNNY   75  54  46 SE15      30.05F
SHARON SPRINGS   N/A     76  61  59 MISG        N/A
KIT CARSON CO    N/A     77  54  44 MISG        N/A
$$


USA.gov is the U.S. government's official web portal to all federal, state and local government web resources and services.